sat.trackr.live / text

‹ back to catalog

DSN-3 (KIRAMEKI-3)

NORAD 61733 · 2024-198A

PAYLOAD ACTIVE UNKNOWN

§ Identity

Operator
Country
JPN
Launch date
2024-11-04
Launch site
TANSC
Launch vehicle
Mass (kg)
RCS (m²)

Purposes: comms

External: N2YO · Heavens-Above · Gunter

§ Orbital elements

Epoch: 2026-09-19T21:04:42.687840Z

Period
1,436.10 min
Inclination
0.0190°
Eccentricity
0.0001304
Mean motion
1.00271770 rev/d
Perigee alt
35,781.1 km
Apogee alt
35,792.1 km
Semi-major
42,164.7 km
B*
0.0000e+0
RAAN
239.7288°
Arg perigee
276.8006°
Mean anomaly
302.5091°
Rev number
686

§ Raw data

DSN-3 (KIRAMEKI-3)1 61733U 24198A   26262.87827185 -.00000254  00000+0  00000+0 0  99982 61733   0.0190 239.7288 0001304 276.8006 302.5091  1.00271770  6863

JSON: /api/v1/satellites/61733 · /tle

For live sub-satellite position, see the globe view (requires WebGL).

§ Visibility from observer

Set your observer location to see the next 7 days of passes ≥ 10°. The values pass through the URL so the page stays shareable.

No JS? Fill the form by hand. The geolocation button needs JavaScript.